Location: Cormont
(50.5693°N, 1.7416°E)
Time: 20:55:46
(UTC+00:00)

STARLINK-62 - Pass Details

Date: 21 October 2019
Orbit: 548 x 551 km, 53.0° (Epoch: 18 November)

Event Time Altitude Azimuth Distance (km) Brightness Sun altitude
Rises 17:14:06 0° 262° (W) 2,715 10.2 -4.6°
Reaches altitude 10° 17:16:21 10° 265° (W) 1,823 8.2 -5.0°
Maximum altitude 17:20:29 69° 349° (N) 593 3.8 -5.6°
Drops below altitude 10° 17:24:37 10° 73° (ENE) 1,828 5.6 -6.2°
Enters shadow 17:25:04 - 74° (ENE) 2,004 5.8 -6.3°
